TimePST,TemperatureF,Dew PointF,Humidity,Sea Level PressureIn,VisibilityMPH,Wind Direction,Wind SpeedMPH,Gust SpeedMPH,PrecipitationIn,Events,Conditions,WindDirDegrees,DateUTC
12:53 AM,41.0,28.0,60,30.11,10.0,NW,8.1,-,N/A,,Clear,320,2013-01-08 08:53:00
1:53 AM,39.9,28.0,63,30.12,10.0,NW,15.0,-,N/A,,Clear,310,2013-01-08 09:53:00
2:53 AM,39.9,28.0,63,30.12,10.0,WNW,8.1,-,N/A,,Clear,290,2013-01-08 10:53:00
3:53 AM,36.0,26.1,67,30.13,10.0,WNW,9.2,-,N/A,,Clear,300,2013-01-08 11:53:00
4:53 AM,37.9,28.0,68,30.12,10.0,Variable,3.5,-,N/A,,Overcast,0,2013-01-08 12:53:00
6:53 AM,36.0,27.0,70,30.10,10.0,Calm,Calm,-,N/A,,Overcast,0,2013-01-08 14:53:00
7:53 AM,37.0,28.9,73,30.10,10.0,NW,4.6,-,0.00,Rain,Light Rain,320,2013-01-08 15:53:00
8:53 AM,37.0,30.9,79,30.11,10.0,North,3.5,-,0.01,,Overcast,360,2013-01-08 16:53:00
9:53 AM,36.0,30.9,82,30.10,7.0,Calm,Calm,-,0.01,Rain,Light Rain,0,2013-01-08 17:53:00
10:53 AM,39.0,33.1,79,30.07,10.0,Calm,Calm,-,0.00,Rain,Light Rain,0,2013-01-08 18:53:00
11:53 AM,37.9,32.0,79,30.03,10.0,Calm,Calm,-,0.00,,Overcast,0,2013-01-08 19:53:00
12:53 PM,39.0,32.0,76,30.00,10.0,Calm,Calm,-,N/A,,Scattered Clouds,0,2013-01-08 20:53:00
1:28 PM,37.4,32.0,81,29.96,10.0,Calm,Calm,-,N/A,,Mostly Cloudy,0,2013-01-08 21:28:00
1:53 PM,39.0,32.0,76,29.99,10.0,NW,3.5,-,N/A,,Overcast,320,2013-01-08 21:53:00
2:53 PM,37.9,32.0,79,29.98,10.0,NNW,4.6,-,N/A,,Overcast,330,2013-01-08 22:53:00
3:25 PM,37.4,30.2,75,29.94,10.0,NNW,3.5,-,N/A,,Mostly Cloudy,330,2013-01-08 23:25:00
3:34 PM,37.4,30.2,75,29.93,10.0,North,4.6,-,N/A,,Scattered Clouds,350,2013-01-08 23:34:00
3:53 PM,36.0,30.9,82,29.96,10.0,Calm,Calm,-,N/A,,Clear,0,2013-01-08 23:53:00
4:53 PM,33.1,28.0,82,29.94,10.0,NE,3.5,-,N/A,,Clear,40,2013-01-09 00:53:00
5:53 PM,30.0,25.0,82,29.91,10.0,NNW,3.5,-,N/A,,Mostly Cloudy,330,2013-01-09 01:53:00
6:53 PM,30.9,27.0,85,29.89,10.0,NW,3.5,-,N/A,,Mostly Cloudy,310,2013-01-09 02:53:00
7:53 PM,28.9,24.1,82,29.87,10.0,Calm,Calm,-,N/A,,Scattered Clouds,0,2013-01-09 03:53:00
9:53 PM,28.9,25.0,85,29.85,5.0,North,4.6,-,N/A,,Partly Cloudy,10,2013-01-09 05:53:00
10:51 PM,28.4,24.8,86,29.79,2.5,Calm,Calm,-,N/A,,Mostly Cloudy,0,2013-01-09 06:51:00
10:53 PM,28.0,24.1,85,29.84,1.2,Calm,Calm,-,N/A,,Mostly Cloudy,0,2013-01-09 06:53:00
10:55 PM,28.4,24.8,86,29.80,0.8,Calm,Calm,-,N/A,,Mist,0,2013-01-09 06:55:00
11:46 PM,28.4,24.8,86,29.78,1.0,North,4.6,-,N/A,,Mist,10,2013-01-09 07:46:00
11:53 PM,28.9,26.1,89,29.82,1.0,North,3.5,-,N/A,,Mist,10,2013-01-09 07:53:00